Weather Roundup
Issued by NWS Springfield, MO

Home | Current Version | Previous Version | Text Only | Print | Product List | Glossary On
Versions: 1 2 3 4 5 6 7 8 9 10 11 12 13 14 15 16 17 18 19 20 21 22 23 24 25 26 27 28 29 30 31 32 33 34 35 36 37 38 39 40 41 42 43 44 45 46 47 48 49 50
000
NZUS99 KSGF 252307
HRRSGF

HOURLY WEATHER
NATIONAL WEATHER SERVICE SPRINGFIELD MO
600 PM CDT SAT MAR 25 2017

......SGF CWA......

CITY           SKY/WX    TMP DP  RH WIND       PRES   REMARKS
SPRINGFIELD    CLOUDY    49  46  90 SW13      29.87R FOG
JOPLIN         CLOUDY    48  44  86 W14       29.90R
WEST PLAINS    CLOUDY    56  52  86 SW10      29.85R
ROLLA          CLOUDY    58  56  93 SW12      29.76R
OSAGE BEACH    RAIN     N/A N/A N/A SW10      29.80R
BRANSON        CLOUDY    50  46  87 W9        29.90R

......SURROUNDING SGF CWA......

CITY           SKY/WX    TMP DP  RH WIND       PRES   REMARKS
CHANUTE        CLOUDY    49  45  86 NW9       29.88S
PARSONS        CLOUDY    48  43  82 W9        29.91R
COFFEYVILLE    CLOUDY    49  42  77 NW9       29.91S
EMPORIA        CLOUDY    45  45 100 NW12G20   29.89R FOG
GROVE OK       CLOUDY    50  45  81 W7        29.92S
ROGERS AR      LGT RAIN  47  45  93 W8        29.91S
SILOAM SPRINGS CLOUDY    46  43  87 W7        29.92R
HARRISON AR    CLOUDY    50  46  86 W10G20    29.90R
NEAR YELLVILLE CLOUDY    55  45  67 W16       29.86R

......KANSAS AND MISSOURI......

CITY           SKY/WX    TMP DP  RH WIND       PRES   REMARKS
KANSAS CTY INT CLOUDY    49  47  93 N9        29.84R
DOWNTOWN KC    CLOUDY    53  47  79 NW9       29.83R
COLUMBIA       LGT RAIN  57  56  96 NE5       29.76F
SEDALIA        LGT RAIN  57  56  96 W10       29.79R
ST JOSEPH      CLOUDY    47  45  93 N12       29.87R
ST LOUIS       CLOUDY    66  56  70 SE16G25   29.79S
SPIRIT OF STL  TSTM      61  59  93 SW7       29.79R FOG
KIRKSVILLE     CLOUDY    50  49  96 N10       29.83R FOG
WICHITA        CLOUDY    46  41  82 N10       29.91S
TOPEKA         CLOUDY    47  46  97 N9        29.88S
OLATHE         LGT RAIN  51  48  89 N14       29.83R

......TENNESSEE......

CITY           SKY/WX    TMP DP  RH WIND       PRES   REMARKS
MEMPHIS        CLOUDY    67  58  72 S15       29.87F
NASHVILLE      CLOUDY    65  56  72 S14G23    30.00R

......ARKANSAS.......

CITY           SKY/WX    TMP DP  RH WIND       PRES   REMARKS
FAYETTEVILLE   CLOUDY    47  46  97 W8        29.92S
FT SMITH       CLOUDY    55  45  68 W12       29.92S
LITTLE ROCK    CLOUDY    64  53  67 NW9       29.87R

......OKLAHOMA.......

CITY           SKY/WX    TMP DP  RH WIND       PRES   REMARKS
TULSA          CLOUDY    52  44  74 NW13      29.92R
PONCA CITY     CLOUDY    49  40  71 NW7       29.92F
MCALESTER      SUNNY     62  45  53 NW9       29.92S
OKLAHOMA CITY  MOSUNNY   60  43  53 NW5       29.91F

......IOWA............

CITY           SKY/WX    TMP DP  RH WIND       PRES   REMARKS
DES MOINES     CLOUDY    44  41  89 NE10      29.89F
QUAD CITIES    CLOUDY    54  50  86 E14       29.88S FOG

......ILLINOIS........

CITY           SKY/WX    TMP DP  RH WIND       PRES   REMARKS
QUINCY         LGT RAIN  59  57  93 E10       29.80F FOG
CHICAGO        RAIN      43  41  93 N8        29.98F FOG



USA.gov is the U.S. government's official web portal to all federal, state and local government web resources and services.